This is the latest recevied weather packets stored in our database for station/object SP3WRO-13. If no packets are shown the sender has not sent any weather packets the latest 10 day(s).
| Time | Temp. | Humidity | Pressure | Rain* | Wind** | Luminosity | Snow |
|---|---|---|---|---|---|---|---|
| 1777474740 | 11.67° C | 31% | 1025.7 hPa | - | - | 339 W/m² | - |
| 1777472940 | 12.78° C | 29% | 1025.8 hPa | - | - | 481 W/m² | - |
| 1777472040 | 12.22° C | 28% | 1025.8 hPa | - | - | 500 W/m² | - |
| 1777471140 | 11.11° C | 30% | 1025.9 hPa | - | - | 462 W/m² | - |
| 1777469340 | 12.78° C | 28% | 1025.9 hPa | - | - | 658 W/m² | - |
| 1777468440 | 11.11° C | 30% | 1026 hPa | - | - | 164 W/m² | - |
| 1777467540 | 11.11° C | 32% | 1026.1 hPa | - | - | 212 W/m² | - |
| 1777465739 | 11.67° C | 31% | 1026.2 hPa | - | - | 501 W/m² | - |
| 1777464839 | 11.11° C | 31% | 1026.2 hPa | - | - | 710 W/m² | - |
| 1777463939 | 11.67° C | 32% | 1026.4 hPa | - | - | 861 W/m² | - |
| 1777462139 | 10.56° C | 33% | 1026.5 hPa | - | - | 517 W/m² | - |
| 1777461239 | 10.56° C | 33% | 1026.7 hPa | - | - | 241 W/m² | - |
| 1777460339 | 10.56° C | 32% | 1026.5 hPa | - | - | 329 W/m² | - |
| 1777459439 | 10.56° C | 35% | 1026.6 hPa | - | - | 856 W/m² | - |
| 1777458539 | 10° C | 32% | 1026.9 hPa | - | - | 327 W/m² | - |
| 1777457639 | 10° C | 32% | 1026.8 hPa | - | - | 901 W/m² | - |
| 1777456739 | 9.44° C | 34% | 1026.9 hPa | - | - | 798 W/m² | - |
| 1777454939 | 10° C | 35% | 1026.9 hPa | - | - | 308 W/m² | - |
| 1777454039 | 9.44° C | 34% | 1026.9 hPa | - | - | 786 W/m² | - |
| 1777453139 | 9.44° C | 36% | 1026.8 hPa | - | - | 715 W/m² | - |
| 1777451338 | 8.89° C | 36% | 1027.1 hPa | - | - | 644 W/m² | - |
| 1777450438 | 8.89° C | 35% | 1026.9 hPa | - | - | 92 W/m² | - |
| 1777449538 | 8.89° C | 34% | 1026.8 hPa | - | - | 540 W/m² | - |
| 1777447738 | 8.89° C | 34% | 1026.8 hPa | - | - | 470 W/m² | - |
| 1777446838 | 8.33° C | 37% | 1026.8 hPa | - | - | 435 W/m² | - |
* Rain since midnight (hover to see other rain measurements)
** Current wind speed in m/s (hover to see current wind gust speed)